Regional Weather Roundup
Issued by NWS Upton, NY

Current Version | Previous Version | Graphics & Text | Print | Product List | Glossary Off
Versions: 1 2 3 4 5 6 7 8 9 10 11 12 13 14 15 16 17 18 19 20 21 22 23 24 25 26 27 28 29 30 31 32 33 34 35 36 37 38 39 40 41 42 43 44 45 46 47 48 49 50

000
ASUS41 KOKX 021418
RWROKX

REGIONAL WEATHER ROUNDUP
NATIONAL WEATHER SERVICE NEW YORK NY
1000 AM EDT THU JUL 02 2015

NOTE: "FAIR" INDICATES FEW OR NO CLOUDS BELOW 12,000 FEET WITH NO
SIGNIFICANT WEATHER AND/OR OBSTRUCTIONS TO VISIBILITY.

NYZ071-072-176-178-NJZ106-104-021500-
NEW YORK CITY METRO AREA


CITY           SKY/WX    TMP DP  RH WIND       PRES   REMARKS
CENTRAL PARK   MOSUNNY   74  57  55 CALM      29.95R
LAGUARDIA APRT PTSUNNY   75  57  53 W7        29.91R
KENNEDY INTL   PTSUNNY   77  54  44 N5        29.91F
NEWARK/LIBERTY PTSUNNY   76  58  53 N10       29.92S
BRNX BOT. GARD   N/A     75  55  50 SE1       29.94R
TETERBORO      MOSUNNY   76  57  51 N6        29.91R
$$

NYZ177-179-078>081-021500-
LONG ISLAND NEW YORK

CITY           SKY/WX    TMP DP  RH WIND       PRES   REMARKS
FARMINGDALE    PTSUNNY   74  59  59 E5        29.91S
ISLIP          CLOUDY    75  59  57 CALM      29.90S
SHIRLEY        MOSUNNY   76  62  62 VRB3      29.92R
WESTHAMPTON    MOSUNNY   76  60  57 VRB3      29.93R
MONTAUK POINT    N/A     74  57  55 VRB3      29.93S
$$

NYZ052-065-067-021500-
HUDSON VALLEY

CITY           SKY/WX    TMP DP  RH WIND       PRES   REMARKS
WHITE PLAINS   MOSUNNY   73  59  61 W6        29.92S
NEWBURGH       MOSUNNY   70  61  73 CALM      29.95
MONTGOMERY     SUNNY     71  58  63 VRB6      29.93R
POUGHKEEPSIE   MOSUNNY   72  57  59 CALM      29.92R
ALBANY         MOSUNNY   70  56  61 W8        29.92S
$$

NJZ001-105-106-008-010-013-015-019>022-104-021500-
NEW JERSEY

CITY           SKY/WX    TMP DP  RH WIND       PRES   REMARKS
NEWARK/LIBERTY PTSUNNY   76  58  53 N10       29.92S
TETERBORO      MOSUNNY   76  57  51 N6        29.91R
CALDWELL       MOSUNNY   74  58  57 VRB3      29.93S
MORRISTOWN     MOSUNNY   77  64  65 N5        29.93S
SOMERVILLE     MOSUNNY   73  62  68 CALM      29.91S
SUSSEX         MOSUNNY   72  57  59 NW3       29.93S
ANDOVER          N/A     70  58  65 VRB5      29.94S
TRENTON        PTSUNNY   72  60  66 NE7       29.92R
MILLVILLE      RAIN      70  67  90 CALM      29.93R FOG
ATLANTIC CITY  PTSUNNY   72  66  81 N3        29.90S
WRIGHTSTOWN    CLOUDY    70  63  77 NE6       29.89F
TOMS RIVER     PTSUNNY   73  63  68 NE3       29.91F
BELMAR         PTSUNNY   73  59  60 NE6       29.91F
$$

PAZ047>061-062-071-021500-
EASTERN PENNSYLVANIA

CITY           SKY/WX    TMP DP  RH WIND       PRES   REMARKS
PHILADELPHIA   LGT RAIN  71  63  75 NE3       29.92R
ALLENTOWN      SUNNY     74  61  63 E6        29.93S
SCRANTON       PTSUNNY   70  57  63 VRB3      29.95S
$$

CTZ002-004>006-009-010-012-RIZ004-006-007-MAZ004-011-015-021500-
SOUTHERN NEW ENGLAND
 IN CT

CITY           SKY/WX    TMP DP  RH WIND       PRES   REMARKS
BRADLEY INTL   PTSUNNY   73  56  54 W6        29.91S
HARTFORD       MOSUNNY   73  59  61 VRB6      29.92R
DANBURY        PTSUNNY   71  57  61 NE5       29.94R
WTRBRY/OXFORD  PTSUNNY   70  57  64 CALM      29.96R
BRIDGEPORT     MOSUNNY   73  61  65 CALM      29.91S
MERIDEN        MOSUNNY   74  58  57 N5        29.92R
NEW HAVEN      MOSUNNY   75  62  64 VRB5      29.91S
CHESTER        FAIR      72  57  60 N3        29.94S
GROTON         MOSUNNY   71  60  68 S7        29.91R
WILLIMANTIC    SUNNY     72  58  61 VRB7      29.92R

 IN RI

CITY           SKY/WX    TMP DP  RH WIND       PRES   REMARKS
PROVIDENCE     PTSUNNY   75  58  55 MISG      29.91R
BLOCK ISLAND   MOSUNNY   73  61  64 W3        29.92S
WESTERLY       MOSUNNY   75  59  57 N3        29.92R

 IN MA

CITY           SKY/WX    TMP DP  RH WIND       PRES   REMARKS
BOSTON         MOSUNNY   72  56  57 W13       29.88S
WORCESTER      SUNNY     70  55  59 W8        29.92R
WESTFIELD      SUNNY     72  54  53 NW8       29.91R
PROVINCETOWN   MOSUNNY   73  14  10 SW9       29.90S
NANTUCKET      SUNNY     71  64  78 SW10      29.92R
$$

ANZ330-335-338-340-345-350-353-355-021500-
COASTAL MARINE OBSERVATIONS


STATION/POSITION TIME  SKY/WX   TEMP    WIND        PRES    VSBY  WAVE
                                AIR SEA DIR/SP/G                  HT/PER
                 (UTC)          (F)     (DEG/KT/KT) (MB)    (MI)  (FT/S)
NY HARB ENTRANCE 1350            71 70  340/  2/  2 1012.4          3/ 7
4S FIRE IS       1303               69                N/A           4/ 8
20S FIRE ISLAND  1350            70 68   40/  2/  2 1012.5          4/ 7
GREAT SOUTH BAY  1300            73 74  290/  2/  2   N/A
23SW MTP         1350            68 68   CALM  /  2 1012.7          4/ 7
HUDSON CANYON    NOT AVBL
KINGS POINT      1300            71 67   40/  2/  4 1012.2
CENTRAL LI SOUND NOT AVBL
EASTERN LI SOUND 1300            67 64  190/  4/  6   N/A
ROBBINS REEF     1300            71     350/  6/  7 1011.8
$$


>>>>>>>>>>>>>>>>>>>>>>>>>>>> KEY <<<<<<<<<<<<<<<<<<<<<<<<<<<
>                                                          <
>     SKY/WX - SKY CONDITION/PRESENT WEATHER               <
>     TMP    - TEMPERATURE IN FAHRENHEIT                   <
>     DP     - DEWPOINT IN FAHRENHEIT                      <
>     RH     - RELATIVE HUMIDITY IN PERCENT                <
>     WIND   - DIRECTION AND SPEED IN MPH                  <
>     PRES   - MEAN SEA LEVEL PRESSURE IN INCHES OF HG     <
>     WCI    - WIND CHILL INDEX                            <
>     VSB    - VISIBILITY IN MILES                         <
>     HX     - HEAT INDEX                                  <
>     TC     - TEMPERATURE IN CELSIUS                      <
>     VRB    - VARIABLE WIND DIRECTION                     <
>                                                          <
>>>>>>>>>>>>>>>>>>>>>>>>>>>> KEY <<<<<<<<<<<<<<<<<<<<<<<<<<<





USA.gov is the U.S. government's official web portal to all federal, state and local government web resources and services.